Date String (YYYY-MM-DD hh:mm:ss) UTC,Instrument flags,absolute air pressure of the measurement (hPa),sample flow rate (lpm),inlet stack bypass flow (lpm),air temperature of the measurement (°C),ambient temperature measured by the external sensor (°C),aerosol sample conditioner tube jacket temperature (°C),OPC LED temperature (°C),internal box temperature (°C),relative humidity of the measurement (%),span deviation,mass concentration of particles derived from Lorenz-Mie calculation of OPC scattering (μg/m³),mass concentration of particles derived from Lorenz-Mie calculation of OPC scattering (μg/m³),mass concentration of particles derived from Lorenz-Mie calculation of OPC scattering (μg/m³)
DateTimeUTC,F1_M11,P_M11,Q1_M11,Q2_M11,T1_M11,T2_M11,T3_M11,T4_M11,T5_M11,U1_M11,ZSPAN_M11,X0_M11,X2_M11,X1_M11
2024-02-13 17:00:00,SystemResetWarning,0827.1,4.99,000.00,019.5,019.2,000.0,027.7,021.2,13.4,0000.0,0009.34,0004.50,0004.08
2024-02-13 17:01:00,SystemResetWarning,0827.0,4.99,000.00,019.5,019.2,000.0,027.7,021.2,12.3,0000.0,0009.45,0004.52,0004.10
2024-02-13 17:02:00,SystemResetWarning,0827.0,5.00,000.00,019.5,019.2,000.0,027.7,021.3,12.5,0000.0,0009.51,0004.56,0004.12
2024-02-13 17:03:00,SystemResetWarning,0827.0,4.99,000.00,019.5,019.2,000.0,027.7,021.3,13.9,0000.0,0009.54,0004.59,0004.15
2024-02-13 17:04:00,SystemResetWarning,0827.0,5.00,000.00,019.5,019.2,000.0,027.7,021.3,14.0,0000.0,0009.56,0004.60,0004.16
2024-02-13 17:05:00,SystemResetWarning,0827.0,5.00,000.00,019.5,019.2,000.0,027.8,021.3,14.1,0000.0,0009.36,0004.49,0004.08
2024-02-13 17:06:00,SystemResetWarning,0827.0,5.00,000.00,019.6,019.2,000.0,027.8,021.3,14.1,0000.0,0009.34,0004.45,0004.03
2024-02-13 17:07:00,SystemResetWarning,0827.0,5.01,000.00,019.6,019.2,000.0,027.8,021.3,14.0,0000.0,0009.26,0004.35,0003.94
2024-02-13 17:08:00,SystemResetWarning,0827.0,5.00,000.00,019.6,019.3,000.0,027.8,021.4,13.5,0000.0,0009.24,0004.22,0003.80
2024-02-13 17:09:00,SystemResetWarning,0827.0,5.01,000.00,019.6,019.3,000.0,027.8,021.4,13.2,0000.0,0008.68,0004.13,0003.71
2024-02-13 17:10:00,SystemResetWarning,0827.0,5.00,000.00,019.6,019.3,000.0,027.8,021.4,13.1,0000.0,0008.69,0004.09,0003.68
2024-02-13 17:11:00,SystemResetWarning,0827.0,5.00,000.00,019.6,019.3,000.0,027.9,021.4,14.4,0000.0,0008.40,0004.05,0003.66
2024-02-13 17:12:00,SystemResetWarning,0827.0,4.99,000.00,019.7,019.3,000.0,027.9,021.4,14.7,0000.0,0008.31,0004.00,0003.62
2024-02-13 17:13:00,SystemResetWarning,0827.0,5.00,000.00,019.7,019.3,000.0,027.9,021.5,15.2,0000.0,0008.34,0003.98,0003.58
2024-02-13 17:14:00,SystemResetWarning,0827.0,5.01,000.00,019.7,019.3,000.0,027.9,021.5,15.2,0000.0,0008.37,0003.93,0003.53
2024-02-13 17:15:00,SystemResetWarning,0827.0,5.01,000.00,019.7,019.3,000.0,027.9,021.5,14.7,0000.0,0008.89,0003.86,0003.46
2024-02-13 17:16:00,SystemResetWarning,0827.0,5.00,000.00,019.7,019.4,000.0,027.9,021.5,14.1,0000.0,0008.92,0003.86,0003.46
2024-02-13 17:17:00,SystemResetWarning,0827.0,4.99,000.00,019.7,019.4,000.0,027.9,021.5,14.0,0000.0,0009.42,0003.90,0003.47
2024-02-13 17:18:00,SystemResetWarning,0827.0,5.00,000.00,019.7,019.4,000.0,028.0,021.5,15.2,0000.0,0009.59,0004.02,0003.58
2024-02-13 17:19:00,SystemResetWarning,0827.0,5.01,000.00,019.8,019.4,000.0,028.0,021.5,15.9,0000.0,0009.71,0004.18,0003.76
2024-02-13 17:20:00,SystemResetWarning,0826.9,5.01,000.00,019.8,019.4,000.0,028.0,021.5,16.0,0000.0,0010.31,0004.34,0003.92
2024-02-13 17:21:00,SystemResetWarning,0827.0,5.00,000.00,019.8,019.4,000.0,028.0,021.5,15.9,0000.0,0010.33,0004.44,0004.01
2024-02-13 17:22:00,SystemResetWarning,0827.0,5.00,000.00,019.8,019.4,000.0,028.0,021.6,15.7,0000.0,0010.67,0004.50,0004.07
2024-02-13 17:23:00,SystemResetWarning,0827.0,4.99,000.00,019.8,019.4,000.0,028.0,021.6,15.3,0000.0,0010.37,0004.55,0004.11
2024-02-13 17:24:00,SystemResetWarning,0827.0,5.00,000.00,019.8,019.4,000.0,028.0,021.6,15.4,0000.0,0010.34,0004.57,0004.15
2024-02-13 17:25:00,SystemResetWarning,0827.0,5.00,000.00,019.8,019.5,000.0,028.1,021.6,15.8,0000.0,0010.75,0004.72,0004.25
2024-02-13 17:26:00,SystemResetWarning,0827.1,5.00,000.00,019.9,019.5,000.0,028.1,021.6,15.9,0000.0,0010.72,0004.89,0004.41
2024-02-13 17:27:00,SystemResetWarning,0827.0,5.00,000.00,019.9,019.5,000.0,028.1,021.6,16.2,0000.0,0010.83,0005.08,0004.59
2024-02-13 17:28:00,SystemResetWarning,0827.0,5.01,000.00,019.9,019.5,000.0,028.1,021.7,16.3,0000.0,0010.70,0005.23,0004.74
2024-02-13 17:29:00,SystemResetWarning,0827.0,5.00,000.00,019.9,019.5,000.0,028.1,021.7,15.9,0000.0,0010.53,0005.29,0004.82
2024-02-13 17:30:00,SystemResetWarning,0827.0,4.99,000.00,019.9,019.5,000.0,028.1,021.7,16.0,0000.0,0010.69,0005.34,0004.87
2024-02-13 17:31:00,SystemResetWarning,0827.0,4.99,000.00,019.9,019.6,000.0,028.1,021.7,16.3,0000.0,0010.30,0005.40,0004.91
2024-02-13 17:32:00,SystemResetWarning,0827.0,5.00,000.00,019.9,019.6,000.0,028.2,021.7,15.9,0000.0,0009.82,0005.46,0004.96
2024-02-13 17:33:00,SystemResetWarning,0827.0,5.00,000.00,020.0,019.6,000.0,028.2,021.7,16.3,0000.0,0009.47,0005.59,0005.06
2024-02-13 17:34:00,SystemResetWarning,0827.0,5.01,000.00,020.0,019.6,000.0,028.2,021.8,16.1,0000.0,0009.98,0005.74,0005.20
2024-02-13 17:35:00,SystemResetWarning,0827.0,5.01,000.00,020.0,019.6,000.0,028.2,021.7,15.6,0000.0,0010.16,0005.89,0005.33
2024-02-13 17:36:00,SystemResetWarning,0826.9,5.00,000.00,020.0,019.6,000.0,028.2,021.8,15.6,0000.0,0009.97,0005.96,0005.44
2024-02-13 17:37:00,SystemResetWarning,0826.9,5.01,000.00,020.0,019.6,000.0,028.2,021.8,15.6,0000.0,0009.72,0006.03,0005.51
2024-02-13 17:38:00,SystemResetWarning,0827.0,4.99,000.00,020.0,019.6,000.0,028.3,021.8,16.0,0000.0,0011.11,0006.19,0005.60
2024-02-13 17:39:00,SystemResetWarning,0827.0,5.00,000.00,020.0,019.7,000.0,028.3,021.8,16.2,0000.0,0012.28,0006.36,0005.71
2024-02-13 17:40:00,SystemResetWarning,0827.0,4.99,000.00,020.1,019.7,000.0,028.3,021.8,16.0,0000.0,0013.10,0006.56,0005.84
2024-02-13 17:41:00,SystemResetWarning,0827.0,5.00,000.00,020.1,019.7,000.0,028.3,021.9,15.8,0000.0,0013.58,0006.83,0005.98
2024-02-13 17:42:00,SystemResetWarning,0827.0,5.01,000.00,020.1,019.7,000.0,028.3,021.9,16.0,0000.0,0014.42,0007.05,0006.13
2024-02-13 17:43:00,SystemResetWarning,0826.9,5.01,000.00,020.1,019.7,000.0,028.3,021.9,15.8,0000.0,0015.72,0007.40,0006.33
2024-02-13 17:44:00,SystemResetWarning,0826.9,5.00,000.00,020.1,019.7,000.0,028.3,021.9,16.2,0000.0,0017.40,0007.73,0006.53
2024-02-13 17:45:00,SystemResetWarning,0826.9,4.99,000.00,020.1,019.7,000.0,028.3,021.9,15.9,0003.5,0019.31,0008.10,0006.73
2024-02-13 17:46:00,SystemResetWarning,0826.9,4.99,000.00,020.2,019.7,000.0,028.4,021.9,15.7,0004.1,0021.86,0008.43,0006.96
2024-02-13 17:47:00,SystemResetWarning,0826.9,5.00,000.00,020.2,019.8,000.0,028.4,021.9,15.9,0004.1,0022.90,0008.76,0007.19
2024-02-13 17:48:00,SystemResetWarning,0827.0,4.99,000.00,020.2,019.8,000.0,028.4,022.0,16.2,0004.1,0024.19,0009.14,0007.41
2024-02-13 17:49:00,SystemResetWarning,0826.9,5.01,000.00,020.2,019.8,000.0,028.4,022.0,16.5,0004.3,0024.00,0009.39,0007.60
2024-02-13 17:50:00,SystemResetWarning,0826.9,5.01,000.00,020.2,019.8,000.0,028.4,022.0,17.1,0003.9,0023.70,0009.68,0007.81
2024-02-13 17:51:00,SystemResetWarning,0826.8,5.00,000.00,020.2,019.8,000.0,028.4,022.0,16.6,0003.7,0024.02,0009.92,0008.01
2024-02-13 17:52:00,SystemResetWarning,0826.8,5.00,000.00,020.2,019.8,000.0,028.4,022.0,16.5,0003.9,0024.51,0010.04,0008.18
2024-02-13 17:53:00,SystemResetWarning,0826.8,4.99,000.00,020.2,019.8,000.0,028.5,022.0,16.6,0003.6,0025.02,0010.20,0008.33
2024-02-13 17:54:00,SystemResetWarning,0826.8,5.00,000.00,020.2,019.8,000.0,028.5,022.0,16.5,0003.7,0024.38,0010.16,0008.39
2024-02-13 17:55:00,SystemResetWarning,0826.8,5.00,000.00,020.3,019.9,000.0,028.5,022.0,16.4,0003.8,0022.90,0010.07,0008.43
2024-02-13 17:56:00,SystemResetWarning,0826.8,5.00,000.00,020.3,019.9,000.0,028.5,022.1,16.7,0003.8,0021.54,0009.99,0008.48
2024-02-13 17:57:00,SystemResetWarning,0826.8,5.00,000.00,020.3,019.9,000.0,028.5,022.1,16.0,0004.1,0019.26,0009.86,0008.49
2024-02-13 17:58:00,SystemResetWarning,0826.8,5.00,000.00,020.3,019.9,000.0,028.5,022.1,15.9,0004.0,0018.97,0009.78,0008.47
2024-02-13 17:59:00,SystemResetWarning,0826.8,5.01,000.00,020.3,019.9,000.0,028.5,022.1,15.5,0004.2,0018.13,0009.67,0008.41
